Date String (YYYY-MM-DD hh:mm:ss) UTC,Instrument flags,Ambient pressure (hPa),Sample flow (lpm),Bypass flow (lpm),Sample temperature (°C),Ambient temperature (°C),ASC tube jacket temperature (°C),LED temperature (°C),Box temperature (°C),Sample RH (%),Span deviation,Mass concentration (μg/m³),Mass concentration (μg/m³),Mass concentration (μg/m³)
DateTimeUTC,F1_M11,P_M11,Q1_M11,Q2_M11,T1_M11,T2_M11,T3_M11,T4_M11,T5_M11,U1_M11,ZSPAN_M11,X2_M11,X0_M11,X1_M11
2022-07-06 17:00:00,,0829.0,5.01,0.00,32.8,28.7,00.0,40.3,32.8,34.0,0000.0,0005.68,0012.42,0004.86
2022-07-06 17:01:00,,0829.0,5.00,0.00,32.8,28.8,00.0,40.3,32.8,33.4,0000.1,0005.70,0011.89,0004.87
2022-07-06 17:02:00,,0829.0,5.01,0.00,32.7,28.9,00.0,40.4,32.8,33.4,0000.2,0005.68,0011.88,0004.89
2022-07-06 17:03:00,,0829.0,5.01,0.00,32.7,29.0,00.0,40.5,32.8,33.7,0000.3,0005.69,0012.04,0004.90
2022-07-06 17:04:00,,0829.0,4.99,0.00,32.7,29.1,00.0,40.5,32.9,33.9,0000.4,0005.69,0012.09,0004.91
2022-07-06 17:05:00,,0829.0,5.00,0.00,32.7,28.7,00.0,40.5,32.9,33.6,0000.5,0005.73,0011.79,0004.92
2022-07-06 17:06:00,,0829.0,4.99,0.00,32.6,28.1,00.0,40.5,32.8,33.8,0000.9,0005.80,0011.93,0004.94
2022-07-06 17:07:00,,0828.9,5.02,0.00,32.5,27.8,00.0,40.4,32.7,33.9,0000.7,0005.85,0011.80,0004.99
2022-07-06 17:08:00,,0828.9,5.00,0.00,32.4,27.8,00.0,40.5,32.6,33.8,0000.2,0005.94,0012.86,0005.07
2022-07-06 17:09:00,,0828.9,4.99,0.00,32.2,27.9,00.0,40.4,32.5,34.2,-000.0,0006.01,0013.03,0005.12
2022-07-06 17:10:00,,0828.9,5.01,0.00,32.1,28.1,00.0,40.4,32.5,34.1,-000.3,0006.04,0012.83,0005.16
2022-07-06 17:11:00,,0828.9,5.00,0.00,32.0,28.2,00.0,40.4,32.5,34.5,-000.3,0006.10,0012.85,0005.20
2022-07-06 17:12:00,,0829.0,5.02,0.00,32.0,28.4,00.0,40.4,32.5,34.1,-000.5,0006.11,0013.33,0005.22
2022-07-06 17:13:00,,0829.0,5.00,0.00,31.9,28.6,00.0,40.3,32.5,34.3,-000.7,0006.17,0013.34,0005.25
2022-07-06 17:14:00,,0829.0,4.99,0.00,31.8,28.7,00.0,40.3,32.5,34.0,-000.7,0006.19,0013.32,0005.25
2022-07-06 17:15:00,,0829.0,5.00,0.00,31.8,28.8,00.0,40.3,32.6,34.8,-000.5,0006.14,0013.24,0005.23
2022-07-06 17:16:00,,0828.9,4.99,0.00,31.9,28.9,00.0,40.3,32.7,35.6,-000.8,0006.11,0013.34,0005.21
2022-07-06 17:17:00,,0829.0,5.00,0.00,32.1,29.0,00.0,40.3,32.9,34.4,-001.2,0006.06,0013.43,0005.19
2022-07-06 17:18:00,,0829.0,5.01,0.00,32.3,28.5,00.0,40.2,32.9,33.7,-001.5,0006.00,0013.74,0005.15
2022-07-06 17:19:00,,0829.0,4.99,0.00,32.3,28.0,00.0,40.1,32.8,33.2,-001.0,0005.92,0012.12,0005.10
2022-07-06 17:20:00,,0828.9,5.00,0.00,32.3,27.7,00.0,40.1,32.6,33.1,-000.8,0005.90,0012.37,0005.07
2022-07-06 17:21:00,,0828.9,5.01,0.00,32.2,27.8,00.0,40.2,32.5,33.0,-000.7,0005.86,0012.33,0005.03
2022-07-06 17:22:00,,0828.9,5.00,0.00,32.1,27.9,00.0,40.2,32.4,33.2,-000.1,0005.80,0012.30,0004.99
2022-07-06 17:23:00,,0828.9,4.99,0.00,32.0,28.1,00.0,40.2,32.4,34.0,0000.1,0005.76,0012.36,0004.94
2022-07-06 17:24:00,,0828.9,5.00,0.00,31.9,28.2,00.0,40.2,32.4,33.5,0000.5,0005.66,0012.33,0004.86
2022-07-06 17:25:00,,0828.9,5.00,0.00,31.9,28.4,00.0,40.2,32.4,33.8,0000.3,0005.63,0012.34,0004.80
2022-07-06 17:26:00,,0828.9,5.00,0.00,31.8,28.5,00.0,40.2,32.5,33.9,-000.3,0005.66,0012.15,0004.79
2022-07-06 17:27:00,,0828.9,5.00,0.00,31.8,28.7,00.0,40.1,32.5,33.8,-000.5,0005.63,0012.35,0004.78
2022-07-06 17:28:00,,0828.9,5.00,0.00,31.7,28.8,00.0,40.1,32.5,33.2,-000.6,0005.62,0012.48,0004.75
2022-07-06 17:29:00,,0829.0,5.01,0.00,31.7,28.9,00.0,40.1,32.6,33.7,-000.7,0005.58,0011.76,0004.72
2022-07-06 17:30:00,,0828.9,5.00,0.00,31.7,29.0,00.0,40.1,32.6,34.2,-000.8,0005.59,0011.68,0004.70
2022-07-06 17:31:00,,0828.9,5.00,0.00,31.7,28.7,00.0,40.1,32.6,34.5,-000.9,0005.59,0011.76,0004.70
2022-07-06 17:32:00,,0828.9,5.00,0.00,31.6,28.0,00.0,40.0,32.5,34.8,-000.3,0005.58,0012.51,0004.70
2022-07-06 17:33:00,,0829.0,5.01,0.00,31.6,27.7,00.0,40.0,32.4,35.0,-000.5,0005.54,0012.65,0004.70
2022-07-06 17:34:00,,0828.9,5.00,0.00,31.6,27.7,00.0,39.9,32.4,34.8,-000.6,0005.54,0012.59,0004.73
2022-07-06 17:35:00,,0828.9,5.00,0.00,31.6,27.8,00.0,39.9,32.3,34.5,-000.7,0005.56,0012.30,0004.74
2022-07-06 17:36:00,,0828.8,4.99,0.00,31.5,28.0,00.0,39.9,32.3,34.8,-000.9,0005.53,0012.17,0004.76
2022-07-06 17:37:00,,0828.8,5.00,0.00,31.5,28.1,00.0,39.9,32.3,35.0,-001.1,0005.49,0012.02,0004.75
2022-07-06 17:38:00,,0828.9,4.99,0.00,31.7,28.3,00.0,39.8,32.4,34.6,-000.7,0005.47,0011.76,0004.74
2022-07-06 17:39:00,,0828.8,5.00,0.00,31.8,28.5,00.0,39.9,32.5,34.5,0000.4,0005.51,0011.31,0004.76
2022-07-06 17:40:00,,0828.8,5.00,0.00,31.8,28.6,00.0,39.9,32.5,34.6,0000.8,0005.56,0011.39,0004.80
2022-07-06 17:41:00,,0828.9,4.99,0.00,31.8,28.7,00.0,39.9,32.5,34.7,0000.5,0005.55,0011.34,0004.81
2022-07-06 17:42:00,,0828.9,5.01,0.00,31.8,28.9,00.0,39.9,32.5,34.4,0000.4,0005.54,0010.95,0004.81
2022-07-06 17:43:00,,0828.9,4.99,0.00,31.8,29.0,00.0,39.9,32.6,34.8,-000.2,0005.60,0010.06,0004.84
2022-07-06 17:44:00,,0828.9,4.99,0.00,31.8,28.9,00.0,39.9,32.6,34.4,-000.4,0005.64,0010.16,0004.86
2022-07-06 17:45:00,,0828.9,5.00,0.00,31.9,28.3,00.0,39.9,32.6,34.1,-000.4,0005.63,0009.98,0004.84
2022-07-06 17:46:00,,0828.9,5.01,0.00,31.8,27.8,00.0,39.9,32.5,34.2,-000.2,0005.61,0010.08,0004.84
2022-07-06 17:47:00,,0828.9,4.99,0.00,31.7,27.7,00.0,39.9,32.3,34.6,0000.0,0005.60,0010.12,0004.83
2022-07-06 17:48:00,,0828.8,5.00,0.00,31.6,27.7,00.0,39.9,32.2,34.9,0000.4,0005.59,0010.96,0004.82
2022-07-06 17:49:00,,0828.9,5.00,0.00,31.6,27.9,00.0,39.8,32.2,34.6,-000.1,0005.57,0011.72,0004.81
2022-07-06 17:50:00,,0828.9,4.99,0.00,31.6,28.0,00.0,39.8,32.3,34.2,-000.5,0005.55,0011.80,0004.79
2022-07-06 17:51:00,,0828.8,4.99,0.00,31.6,28.2,00.0,39.8,32.3,34.4,-001.0,0005.51,0011.90,0004.74
2022-07-06 17:52:00,,0828.9,5.00,0.00,31.5,28.4,00.0,39.8,32.3,34.5,-001.2,0005.50,0011.95,0004.71
2022-07-06 17:53:00,,0828.8,5.00,0.00,31.5,28.5,00.0,39.9,32.4,34.7,-001.2,0005.46,0012.63,0004.67
2022-07-06 17:54:00,,0828.8,5.01,0.00,31.6,28.7,00.0,39.9,32.4,33.9,-001.0,0005.36,0013.17,0004.60
2022-07-06 17:55:00,,0828.8,4.99,0.00,31.6,28.8,00.0,39.9,32.5,33.1,-001.1,0005.30,0012.88,0004.53
2022-07-06 17:56:00,,0828.8,4.99,0.00,31.6,28.8,00.0,39.9,32.5,33.4,-000.5,0005.29,0012.92,0004.51
2022-07-06 17:57:00,,0828.9,5.00,0.00,31.6,28.3,00.0,39.8,32.4,33.5,-000.1,0005.30,0013.85,0004.50
2022-07-06 17:58:00,,0829.3,5.00,0.00,31.5,27.8,00.0,39.8,32.3,33.6,0000.0,0005.31,0014.03,0004.49
2022-07-06 17:59:00,,0829.0,4.99,0.00,31.5,27.6,00.0,39.8,32.2,33.8,0000.0,0005.31,0013.91,0004.49
